Tracking 21092 objects as of 14-Aug-2020
HD Live streaming from Space Station
objects crossing your sky now
Track the most recent launched group of Starlink satellites

COSMOS 508

Track COSMOS 508 now!
10-day predictions
COSMOS 508 is classified as:


NORAD ID: 6121
Int'l Code: 1972-057E
Perigee: 1,450.0 km
Apogee: 1,502.8 km
Inclination: 74.0 °
Period: 115.3 minutes
Semi major axis: 7847 km
RCS: 0.6791 m2 (medium)
Launch date: July 20, 1972
Source: Commonwealth of Independent States (former USSR) (CIS)
Launch site: PLESETSK MISSILE AND SPACE COMPLEX (PKMTR)
aabbcc
Your satellite tracking list
Your tracking list is empty




NASA's NSSDC Master Catalog

Two Line Element Set (TLE):
1  6121U 72057E   20227.44371358 -.00000029 +00000-0 -89272-4 0  9994
2  6121 074.0305 340.0300 0033594 053.3888 010.7058 12.48862341191438
Source of the keplerian elements: AFSPC